カタログに戻る

METEOR 2-20 DEB

運用中PO
NORAD 59998·DEBRIS·🇷🇺 Russia

打ち上げ Sep 28, 1990 から Plesetsk Cosmodrome

Loading…

次のパス (今後24時間)

TLE

最新Source: Space-Track

元期: Sep 14, 2026, 01:15 UTC

1 59998U 90086H   26257.05272812  .00000734  00000-0  58418-3 0  9995
2 59998  82.5311 122.8742 0017072 119.4133 240.8737 13.89842920129815

AllMySatでMETEOR 2-20 DEBをリアルタイム追跡

Download on the App Store